Weather History for Sioux Falls, SD

Change the Weather History Date:

Saturday, April 26, 2014

  Actual Average Record
Temperature  
Mean Temperature 57 °F 51 °F  
Max Temperature 68 °F 63 °F 88 °F (1987)
Min Temperature 46 °F 39 °F 21 °F (1931)
Degree Days  
Heating Degree Days 8 14  
Month to date heating degree days 490 508  
Since 1 July heating degree days 7938 7353  
Cooling Degree Days 0 0  
Month to date cooling degree days 0 0  
Year to date cooling degree days 0 0  
Growing Degree Days 7 (Base 50)    
Moisture  
Dew Point 38 °F    
Average Humidity 53    
Maximum Humidity 76    
Minimum Humidity 30    
Precipitation  
Precipitation 0.08 in 0.10 in 1.56 in (1964)
Month to date precipitation 0.80 2.59  
Year to date precipitation 2.50 5.51  
Snow  
Snow 0.00 in 0.10 in 2.90 in (1988)
Month to date snowfall 3.4 4.3  
Since 1 July snowfall 45.3 44.2  
Snow Depth 0.00 in    
Sea Level Pressure  
Sea Level Pressure 29.72 in    
Wind  
Wind Speed 24 mph (East)    
Max Wind Speed 41 mph    
Max Gust Speed 51 mph    
Visibility 10 miles    
Events Thunderstorm    
T = Trace of Precipitation, MM = Missing Value Source: NWS Daily Summary

Daily Weather History Graph

Daily Weather History Graph

Search for Another Location

Airport:

Trip Planner

Search our weather history database for the weather conditions in past years. The results will help you decide how hot, cold, wet, or windy it might be!

Date:

Astronomy

Apr. 26, 2014 Rise Set
Actual Time 6:26 AM CDT 8:23 PM CDT
Civil Twilight 5:55 AM CDT 8:54 PM CDT
Nautical Twilight 5:18 AM CDT 9:32 PM CDT
Astronomical Twilight 4:37 AM CDT 10:13 PM CDT
Moon 4:57 AM CDT (4/26) 5:48 PM CDT (4/26)
Length of Visible Light 14h 58m
Length of Day
13h 56m
Waning Crescent, 8% of the Moon is Illuminated
Apr 26
Waning Crescent
Apr 29
New
May 6
First Quarter
May 14
Full
May 21
Last Quarter

Hourly Weather History & Observations

Time (CDT) Temp. Windchill Dew Point Humidity Pressure Visibility Wind Dir Wind Speed Gust Speed Precip Events Conditions
12:56 AM 52.0 °F - 39.0 °F 61% 29.82 in 10.0 mi ENE 13.8 mph - N/A   Clear
1:56 AM 51.1 °F - 39.0 °F 63% 29.83 in 10.0 mi East 13.8 mph - N/A   Clear
2:56 AM 50.0 °F - 39.0 °F 66% 29.82 in 10.0 mi East 13.8 mph - N/A   Clear
3:56 AM 48.9 °F - 39.0 °F 69% 29.81 in 10.0 mi East 15.0 mph - N/A   Clear
4:56 AM 48.0 °F - 39.0 °F 71% 29.81 in 10.0 mi East 15.0 mph - N/A   Partly Cloudy
5:56 AM 46.9 °F - 39.0 °F 74% 29.82 in 10.0 mi East 16.1 mph - N/A   Mostly Cloudy
6:56 AM 46.0 °F 39.0 °F 39.0 °F 76% 29.81 in 10.0 mi East 17.3 mph - N/A   Overcast
7:56 AM 46.0 °F 39.0 °F 37.9 °F 73% 29.82 in 10.0 mi East 17.3 mph - N/A   Mostly Cloudy
8:56 AM 48.9 °F - 39.0 °F 69% 29.85 in 10.0 mi East 17.3 mph - N/A   Mostly Cloudy
9:56 AM 54.0 °F - 37.9 °F 55% 29.81 in 10.0 mi East 19.6 mph 26.5 mph N/A   Overcast
10:56 AM 60.1 °F - 35.1 °F 39% 29.78 in 10.0 mi East 23.0 mph 35.7 mph N/A   Overcast
11:56 AM 62.1 °F - 34.0 °F 35% 29.76 in 10.0 mi East 31.1 mph 38.0 mph N/A   Overcast
12:56 PM 64.9 °F - 35.1 °F 33% 29.72 in 10.0 mi ESE 31.1 mph 40.3 mph N/A   Overcast
1:56 PM 66.9 °F - 37.0 °F 33% 29.68 in 10.0 mi East 34.5 mph 43.7 mph N/A   Overcast
2:56 PM 66.9 °F - 36.0 °F 32% 29.64 in 10.0 mi ESE 32.2 mph 50.6 mph N/A   Overcast
3:56 PM 68.0 °F - 36.0 °F 31% 29.63 in 10.0 mi ESE 34.5 mph 44.9 mph N/A   Overcast
4:56 PM 66.9 °F - 37.0 °F 33% 29.60 in 10.0 mi East 34.5 mph 47.2 mph N/A   Overcast
5:56 PM 64.0 °F - 37.9 °F 38% 29.61 in 10.0 mi East 25.3 mph 40.3 mph N/A   Overcast
6:56 PM 62.1 °F - 37.9 °F 41% 29.60 in 10.0 mi East 31.1 mph 39.1 mph N/A   Overcast
7:56 PM 60.1 °F - 37.9 °F 44% 29.61 in 10.0 mi East 26.5 mph 36.8 mph N/A   Overcast
8:56 PM 59.0 °F - 37.9 °F 46% 29.62 in 10.0 mi East 23.0 mph 38.0 mph N/A   Overcast
9:56 PM 55.0 °F - 37.0 °F 51% 29.63 in 10.0 mi East 26.5 mph 36.8 mph N/A   Overcast
10:56 PM 55.0 °F - 37.0 °F 51% 29.62 in 10.0 mi East 28.8 mph 38.0 mph N/A   Overcast
11:54 PM 55.4 °F - 37.4 °F 51% 29.61 in 10.0 mi East 26.5 mph 38.0 mph N/A Thunderstorm Thunderstorm
11:56 PM 55.0 °F - 37.0 °F 51% 29.60 in 10.0 mi ESE 27.6 mph 38.0 mph N/A Thunderstorm Thunderstorm